| time (UTC) | temp F | wind direction | speed MPH | gust MPH | rain 1hr in | rain 24hr in | rain mn in | humidity % | barometer mb |
| 20260510031942 | 55 | 1 | 1.0 | 3.0 | 0.00 | 0.44 | 0.03 | 61 | 1011.0 |
| 20260510031042 | 56 | 1 | 0.0 | 3.0 | 0.00 | 0.44 | 0.03 | 61 | 1011.2 |
| 20260510030142 | 56 | 1 | 1.0 | 2.0 | 0.00 | 0.44 | 0.03 | 60 | 1011.2 |
| 20260510025242 | 56 | 1 | 1.0 | 2.0 | 0.00 | 0.44 | 0.03 | 60 | 1011.2 |
| 20260510024342 | 56 | 1 | 0.0 | 3.0 | 0.00 | 0.44 | 0.03 | 61 | 1011.2 |
| 20260510022542 | 56 | 1 | 0.0 | 2.0 | 0.00 | 0.44 | 0.03 | 60 | 1011.1 |
| 20260510021642 | 56 | 1 | 1.0 | 3.0 | 0.00 | 0.44 | 0.03 | 60 | 1011.0 |
| 20260510015842 | 56 | 1 | 1.0 | 3.0 | 0.00 | 0.44 | 0.03 | 60 | 1011.0 |
| 20260510014942 | 56 | 1 | 0.0 | 3.0 | 0.00 | 0.44 | 0.03 | 60 | 1011.1 |
| 20260510014042 | 57 | 0 | 0.0 | 0.0 | 0.00 | 0.44 | 0.03 | 60 | 1011.1 |
| 20260510013142 | 57 | 0 | 0.0 | 0.0 | 0.00 | 0.44 | 0.03 | 60 | 1011.1 |
| 20260510012242 | 57 | 0 | 0.0 | 0.0 | 0.00 | 0.44 | 0.03 | 60 | 1011.3 |
| 20260510010442 | 57 | 0 | 0.0 | 0.0 | 0.00 | 0.44 | 0.03 | 60 | 1011.5 |
| 20260510005542 | 57 | 0 | 0.0 | 0.0 | 0.00 | 0.44 | 0.03 | 60 | 1011.5 |
| 20260510004642 | 57 | 0 | 0.0 | 0.0 | 0.00 | 0.44 | 0.03 | 60 | 1011.7 |
| 20260510001942 | 57 | 0 | 0.0 | 0.0 | 0.01 | 0.44 | 0.03 | 60 | 1012.1 |
| 20260510001041 | 57 | 0 | 0.0 | 0.0 | 0.02 | 0.44 | 0.03 | 60 | 1012.2 |
| 20260510000142 | 57 | 1 | 0.0 | 1.0 | 0.02 | 0.44 | 0.03 | 60 | 1012.4 |
| 20260509235242 | 57 | 1 | 0.0 | 2.0 | 0.02 | 0.44 | 0.03 | 60 | 1012.6 |
| 20260509234342 | 57 | 1 | 1.0 | 3.0 | 0.02 | 0.44 | 0.03 | 60 | 1012.7 |
| 20260509233441 | 57 | 1 | 2.0 | 3.0 | 0.01 | 0.43 | 0.02 | 60 | 1012.9 |
| 20260509232541 | 57 | 1 | 2.0 | 5.0 | 0.02 | 0.43 | 0.02 | 60 | 1013.0 |
| 20260509231641 | 57 | 1 | 1.0 | 3.0 | 0.02 | 0.43 | 0.02 | 60 | 1013.1 |
| 20260509230741 | 57 | 1 | 0.0 | 2.0 | 0.02 | 0.43 | 0.02 | 60 | 1013.1 |
| 20260509225841 | 57 | 1 | 1.0 | 3.0 | 0.02 | 0.43 | 0.02 | 60 | 1013.1 |
| 20260509224941 | 58 | 1 | 1.0 | 2.0 | 0.02 | 0.43 | 0.02 | 60 | 1013.1 |
| 20260509224041 | 57 | 1 | 2.0 | 4.0 | 0.03 | 0.43 | 0.02 | 60 | 1013.1 |
| 20260509223141 | 58 | 1 | 1.0 | 4.0 | 0.05 | 0.43 | 0.02 | 60 | 1013.1 |
| 20260509222241 | 57 | 1 | 1.0 | 3.0 | 0.05 | 0.42 | 0.01 | 60 | 1013.0 |
| 20260509221341 | 57 | 1 | 0.0 | 3.0 | 0.05 | 0.41 | 0.00 | 61 | 1013.1 |
| 20260509220441 | 57 | 1 | 0.0 | 2.0 | 0.05 | 0.41 | 0.00 | 61 | 1013.1 |
| 20260509215541 | 57 | 1 | 1.0 | 2.0 | 0.06 | 0.41 | 0.41 | 61 | 1013.1 |
| 20260509214641 | 57 | 1 | 1.0 | 3.0 | 0.06 | 0.40 | 0.40 | 61 | 1013.0 |
| 20260509213741 | 57 | 1 | 2.0 | 4.0 | 0.05 | 0.39 | 0.39 | 61 | 1013.1 |
| 20260509212841 | 57 | 1 | 2.0 | 4.0 | 0.03 | 0.38 | 0.38 | 62 | 1013.0 |
| 20260509211941 | 57 | 1 | 3.0 | 5.0 | 0.02 | 0.37 | 0.37 | 62 | 1012.9 |
| 20260509210141 | 58 | 1 | 3.0 | 5.0 | 0.01 | 0.35 | 0.35 | 63 | 1012.8 |
| 20260509204341 | 58 | 1 | 4.0 | 8.0 | 0.00 | 0.35 | 0.35 | 62 | 1012.2 |
| 20260509203441 | 57 | 1 | 6.0 | 9.0 | 0.00 | 0.35 | 0.35 | 61 | 1011.8 |
| 20260509202541 | 57 | 1 | 6.0 | 10.0 | 0.01 | 0.35 | 0.35 | 61 | 1011.6 |
| 20260509201641 | 57 | 1 | 5.0 | 11.0 | 0.01 | 0.35 | 0.35 | 61 | 1011.5 |
| 20260509200741 | 57 | 1 | 5.0 | 9.0 | 0.02 | 0.35 | 0.35 | 61 | 1011.5 |
| 20260509195841 | 57 | 1 | 4.0 | 9.0 | 0.05 | 0.35 | 0.35 | 61 | 1011.5 |
| 20260509194941 | 56 | 1 | 4.0 | 8.0 | 0.08 | 0.35 | 0.35 | 61 | 1011.2 |
| 20260509194041 | 56 | 1 | 4.0 | 7.0 | 0.11 | 0.35 | 0.35 | 61 | 1010.8 |
| 20260509193141 | 56 | 1 | 7.0 | 10.0 | 0.15 | 0.35 | 0.35 | 62 | 1010.6 |
| 20260509192241 | 56 | 1 | 7.0 | 11.0 | 0.17 | 0.34 | 0.34 | 62 | 1010.2 |
| 20260509191341 | 56 | 1 | 6.0 | 11.0 | 0.16 | 0.33 | 0.33 | 63 | 1010.3 |
| 20260509185541 | 58 | 1 | 5.0 | 7.0 | 0.17 | 0.29 | 0.29 | 64 | 1011.2 |
| 20260509184641 | 58 | 1 | 3.0 | 7.0 | 0.16 | 0.25 | 0.25 | 66 | 1011.5 |
| 20260509183741 | 59 | 1 | 2.0 | 5.0 | 0.16 | 0.22 | 0.22 | 68 | 1011.8 |
| 20260509182841 | 59 | 1 | 1.0 | 3.0 | 0.17 | 0.19 | 0.19 | 69 | 1012.0 |
| 20260509181941 | 59 | 1 | 2.0 | 3.0 | 0.17 | 0.17 | 0.17 | 70 | 1012.3 |
| 20260509181041 | 59 | 1 | 3.0 | 4.0 | 0.17 | 0.17 | 0.17 | 71 | 1012.4 |
| 20260509180141 | 59 | 1 | 1.0 | 4.0 | 0.14 | 0.14 | 0.14 | 72 | 1012.5 |
| 20260509175241 | 59 | 1 | 2.0 | 5.0 | 0.12 | 0.12 | 0.12 | 72 | 1012.3 |
| 20260509174340 | 60 | 1 | 3.0 | 6.0 | 0.09 | 0.09 | 0.09 | 73 | 1012.3 |
| 20260509173441 | 62 | 1 | 3.0 | 6.0 | 0.05 | 0.05 | 0.05 | 71 | 1012.2 |
| 20260509171641 | 62 | 1 | 4.0 | 8.0 | 0.01 | 0.01 | 0.01 | 74 | 1012.2 |
| 20260509170740 | 63 | 1 | 4.0 | 8.0 | 0.00 | 0.00 | 0.00 | 76 | 1012.2 |
| 20260509165840 | 63 | 1 | 4.0 | 7.0 | 0.00 | 0.00 | 0.00 | 77 | 1012.0 |
| 20260509164040 | 63 | 1 | 2.0 | 6.0 | 0.00 | 0.00 | 0.00 | 76 | 1011.6 |
| 20260509163141 | 63 | 1 | 3.0 | 6.0 | 0.00 | 0.00 | 0.00 | 76 | 1011.4 |
| 20260509161340 | 64 | 1 | 1.0 | 3.0 | 0.00 | 0.00 | 0.00 | 76 | 1011.0 |
| 20260509160440 | 64 | 1 | 2.0 | 4.0 | 0.00 | 0.00 | 0.00 | 75 | 1010.9 |
| 20260509155540 | 64 | 1 | 2.0 | 4.0 | 0.00 | 0.00 | 0.00 | 75 | 1011.2 |
| 20260509154640 | 64 | 1 | 2.0 | 5.0 | 0.00 | 0.00 | 0.00 | 75 | 1011.4 |
| 20260509153740 | 64 | 1 | 3.0 | 4.0 | 0.00 | 0.00 | 0.00 | 75 | 1011.4 |
| 20260509151940 | 64 | 1 | 4.0 | 7.0 | 0.00 | 0.00 | 0.00 | 74 | 1011.5 |
| 20260509151040 | 64 | 1 | 4.0 | 7.0 | 0.00 | 0.00 | 0.00 | 74 | 1012.0 |
| 20260509145240 | 65 | 1 | 2.0 | 6.0 | 0.00 | 0.00 | 0.00 | 73 | 1012.3 |
| 20260509143440 | 65 | 1 | 2.0 | 5.0 | 0.00 | 0.00 | 0.00 | 74 | 1012.3 |
| 20260509142540 | 65 | 1 | 2.0 | 5.0 | 0.00 | 0.00 | 0.00 | 74 | 1012.4 |
| 20260509141640 | 65 | 1 | 3.0 | 5.0 | 0.00 | 0.00 | 0.00 | 74 | 1012.4 |
| 20260509140740 | 65 | 1 | 3.0 | 5.0 | 0.00 | 0.00 | 0.00 | 73 | 1012.4 |
| 20260509135840 | 65 | 1 | 3.0 | 8.0 | 0.00 | 0.00 | 0.00 | 73 | 1012.4 |
| 20260509134940 | 65 | 1 | 3.0 | 8.0 | 0.00 | 0.00 | 0.00 | 73 | 1012.3 |
| 20260509134040 | 66 | 1 | 4.0 | 9.0 | 0.00 | 0.00 | 0.00 | 73 | 1012.5 |
| 20260509133140 | 66 | 1 | 3.0 | 9.0 | 0.00 | 0.00 | 0.00 | 73 | 1012.3 |
| 20260509132240 | 66 | 1 | 3.0 | 7.0 | 0.00 | 0.00 | 0.00 | 73 | 1012.5 |
| 20260509131340 | 66 | 1 | 3.0 | 6.0 | 0.00 | 0.00 | 0.00 | 72 | 1012.6 |
| 20260509130440 | 66 | 1 | 3.0 | 7.0 | 0.00 | 0.00 | 0.00 | 73 | 1012.7 |
| 20260509125540 | 66 | 1 | 3.0 | 6.0 | 0.00 | 0.00 | 0.00 | 73 | 1012.7 |
| 20260509124640 | 65 | 1 | 4.0 | 10.0 | 0.00 | 0.00 | 0.00 | 73 | 1013.1 |
| 20260509123740 | 66 | 1 | 3.0 | 9.0 | 0.00 | 0.00 | 0.00 | 74 | 1013.4 |
| 20260509122840 | 66 | 1 | 4.0 | 8.0 | 0.00 | 0.00 | 0.00 | 74 | 1013.6 |
| 20260509121940 | 66 | 1 | 4.0 | 8.0 | 0.00 | 0.00 | 0.00 | 74 | 1013.6 |
| 20260509121040 | 66 | 1 | 4.0 | 10.0 | 0.00 | 0.00 | 0.00 | 74 | 1013.6 |
| 20260509120140 | 66 | 1 | 3.0 | 8.0 | 0.00 | 0.00 | 0.00 | 73 | 1013.6 |
| 20260509115240 | 66 | 1 | 3.0 | 7.0 | 0.00 | 0.00 | 0.00 | 72 | 1013.5 |
| 20260509114340 | 67 | 1 | 3.0 | 8.0 | 0.00 | 0.00 | 0.00 | 72 | 1013.5 |
| 20260509113440 | 66 | 1 | 4.0 | 7.0 | 0.00 | 0.00 | 0.00 | 72 | 1013.5 |
| 20260509111640 | 67 | 1 | 3.0 | 10.0 | 0.00 | 0.00 | 0.00 | 72 | 1013.7 |
| 20260509110740 | 67 | 1 | 4.0 | 7.0 | 0.00 | 0.00 | 0.00 | 72 | 1013.8 |
| 20260509105839 | 67 | 1 | 3.0 | 9.0 | 0.00 | 0.00 | 0.00 | 71 | 1013.8 |
| 20260509104939 | 67 | 1 | 4.0 | 8.0 | 0.00 | 0.00 | 0.00 | 72 | 1014.0 |
| 20260509104040 | 67 | 1 | 4.0 | 9.0 | 0.00 | 0.00 | 0.00 | 72 | 1014.1 |
| 20260509103139 | 67 | 1 | 4.0 | 11.0 | 0.00 | 0.00 | 0.00 | 71 | 1014.2 |
| 20260509102240 | 67 | 1 | 4.0 | 9.0 | 0.00 | 0.00 | 0.00 | 71 | 1013.9 |
| 20260509101339 | 67 | 1 | 4.0 | 7.0 | 0.00 | 0.00 | 0.00 | 72 | 1014.0 |
| 20260509100439 | 67 | 1 | 2.0 | 8.0 | 0.00 | 0.00 | 0.00 | 73 | 1013.9 |
| 20260509095539 | 66 | 1 | 3.0 | 7.0 | 0.00 | 0.00 | 0.00 | 74 | 1013.8 |
| 20260509093739 | 65 | 1 | 2.0 | 6.0 | 0.00 | 0.00 | 0.00 | 75 | 1013.8 |
| 20260509092839 | 65 | 1 | 2.0 | 5.0 | 0.00 | 0.00 | 0.00 | 76 | 1013.6 |
| 20260509091040 | 65 | 1 | 2.0 | 4.0 | 0.00 | 0.00 | 0.00 | 76 | 1013.3 |
| 20260509090139 | 64 | 1 | 2.0 | 5.0 | 0.00 | 0.00 | 0.00 | 76 | 1013.4 |
| 20260509085239 | 64 | 1 | 2.0 | 6.0 | 0.00 | 0.00 | 0.00 | 76 | 1013.7 |
| 20260509084339 | 64 | 1 | 2.0 | 5.0 | 0.00 | 0.00 | 0.00 | 76 | 1013.8 |
| 20260509083439 | 63 | 1 | 1.0 | 4.0 | 0.00 | 0.00 | 0.00 | 76 | 1013.9 |
| 20260509082540 | 62 | 1 | 1.0 | 2.0 | 0.00 | 0.00 | 0.00 | 76 | 1013.9 |
| 20260509080739 | 61 | 1 | 1.0 | 3.0 | 0.00 | 0.00 | 0.00 | 73 | 1014.0 |
| 20260509075839 | 61 | 1 | 2.0 | 3.0 | 0.00 | 0.00 | 0.00 | 71 | 1013.9 |
| 20260509074939 | 60 | 1 | 2.0 | 4.0 | 0.00 | 0.00 | 0.00 | 71 | 1014.0 |
| 20260509074040 | 60 | 1 | 2.0 | 3.0 | 0.00 | 0.00 | 0.00 | 68 | 1014.1 |
| 20260509073139 | 59 | 1 | 3.0 | 4.0 | 0.00 | 0.00 | 0.00 | 67 | 1014.1 |
| 20260509071339 | 58 | 1 | 3.0 | 5.0 | 0.00 | 0.00 | 0.00 | 66 | 1014.3 |
| 20260509070439 | 58 | 1 | 3.0 | 6.0 | 0.00 | 0.00 | 0.00 | 65 | 1014.2 |
| 20260509065539 | 58 | 1 | 4.0 | 5.0 | 0.00 | 0.00 | 0.00 | 64 | 1014.2 |
| 20260509064639 | 57 | 1 | 5.0 | 7.0 | 0.00 | 0.00 | 0.00 | 63 | 1014.3 |
| 20260509063739 | 57 | 1 | 5.0 | 8.0 | 0.00 | 0.00 | 0.00 | 63 | 1014.2 |
| 20260509060139 | 56 | 1 | 3.0 | 4.0 | 0.00 | 0.00 | 0.00 | 61 | 1014.5 |
| 20260509055239 | 56 | 1 | 1.0 | 4.0 | 0.00 | 0.00 | 0.00 | 61 | 1014.4 |
| 20260509054339 | 56 | 1 | 0.0 | 3.0 | 0.00 | 0.00 | 0.00 | 61 | 1014.4 |
| 20260509053439 | 55 | 0 | 0.0 | 0.0 | 0.00 | 0.00 | 0.00 | 61 | 1014.2 |
| 20260509052539 | 55 | 0 | 0.0 | 0.0 | 0.00 | 0.00 | 0.00 | 61 | 1014.2 |
| 20260509051639 | 55 | 1 | 1.0 | 2.0 | 0.00 | 0.00 | 0.00 | 61 | 1014.1 |
| 20260509050739 | 55 | 1 | 1.0 | 2.0 | 0.00 | 0.00 | 0.00 | 62 | 1014.1 |
| 20260509045838 | 54 | 1 | 1.0 | 3.0 | 0.00 | 0.00 | 0.00 | 62 | 1014.0 |
| 20260509044938 | 55 | 1 | 0.0 | 3.0 | 0.00 | 0.00 | 0.00 | 62 | 1013.9 |
| 20260509043139 | 54 | 0 | 0.0 | 0.0 | 0.00 | 0.00 | 0.00 | 62 | 1013.9 |
| 20260509042238 | 54 | 0 | 0.0 | 0.0 | 0.00 | 0.00 | 0.00 | 62 | 1013.9 |
| 20260509041339 | 55 | 0 | 0.0 | 0.0 | 0.00 | 0.00 | 0.00 | 62 | 1013.8 |
| 20260509040439 | 55 | 1 | 2.0 | 2.0 | 0.00 | 0.00 | 0.00 | 62 | 1013.7 |
| 20260509035539 | 55 | 1 | 1.0 | 3.0 | 0.00 | 0.00 | 0.00 | 62 | 1013.7 |
| 20260509034638 | 56 | 1 | 0.0 | 3.0 | 0.00 | 0.00 | 0.00 | 61 | 1013.9 |
| 20260509033738 | 56 | 1 | 0.0 | 1.0 | 0.00 | 0.00 | 0.00 | 62 | 1013.8 |
| 20260509032838 | 56 | 1 | 1.0 | 1.0 | 0.00 | 0.00 | 0.00 | 63 | 1013.8 |